• Join FlightAware (Why Join?)
  • Login
  • US Flag GB Flag 
18:02 EST


 

Airport Tracker/Info


-or-


 

Live Flight TrackerFlight Track Log ✈ FLG3735 ✈ 01-May-2013 ✈ KDTW - KALB

Flight Track Log - Related Links

Times and Time Zones

All times are in EDT time to prevent confusion due to time zone crossing. See the FLG3735 flight status page for this flight to view local times or setup timezone preferences in your user account.

Time Position Orientation Groundspeed Altitude Reporting Facility
EDT Latitude Longitude Course Direction KTS MPH feet Rate Location/Type
22:04 42.1994 -83.3608 90° East 158 182 1,500  Level Cleveland Center
22:05 42.1533 -83.3644 183° South 204 235 3,100 1,878 Climbing Cleveland Center
22:05 42.1014 -83.3594 176° South 232 267 5,100 2,000 Climbing Cleveland Center
22:06 42.2793 -82.9327 71° East  Level FlightAware Approximate
22:07 42.3079 -82.7942 75° East  Level FlightAware Approximate
22:07 42.0975 -83.2586 93° East 257 296 7,400  Level Cleveland Center
22:07 42.1283 -83.1869 60° Northeast 277 319 9,900 3,000 Climbing Cleveland Center
22:08 42.3264 -82.6527 82° East  Level FlightAware Approximate
22:08 42.1353 -83.1647 67° East 278 320 10,400  Level Cleveland Center
22:08 42.1661 -83.0878 62° Northeast 329 379 11,500 1,600 Climbing Cleveland Center
22:09 42.3500 -82.5132 90° East  Level FlightAware Approximate
22:09 42.1750 -83.0628 64° Northeast 319 367 12,000  Level Cleveland Center
22:10 42.2147 -82.9550 64° Northeast 345 397 13,000 950 Climbing Cleveland Center
22:11 42.2586 -82.8444 62° Northeast 345 397 13,900 1,500 Climbing Cleveland Center
22:12 42.3025 -82.7336 62° Northeast 339 390 16,000 1,900 Climbing Cleveland Center
22:13 42.3400 -82.6142 67° East 334 384 17,700 1,350 Climbing Cleveland Center
22:14 42.3611 -82.4800 78° East 347 399 18,700 1,150 Climbing Cleveland Center
22:15 42.3614 -82.3394 90° East 357 411 20,000 1,000 Climbing Cleveland Center
22:16 42.3572 -82.1903 92° East 369 425 20,700 900 Climbing Cleveland Center
22:17 42.3511 -82.0244 93° East 397 457 21,800 1,050 Climbing Cleveland Center
22:18 42.3425 -81.8753 94° East 403 464 22,800 950 Climbing Cleveland Center
22:19 42.3419 -81.7378 90° East 403 464 23,700 900 Climbing Cleveland Center
22:20 42.3558 -81.5861 83° East 403 464 24,600 850 Climbing Cleveland Center
22:21 42.3694 -81.4319 83° East 408 470 25,400 750 Climbing Cleveland Center
22:22 42.3811 -81.2747 84° East 408 470 26,100 700 Climbing Cleveland Center
22:23 42.3944 -81.1200 83° East 408 470 26,800 450 Climbing Cleveland Center
22:24 42.4075 -80.9486 84° East 408 470 27,000 100 Climbing Cleveland Center
22:25 42.4203 -80.7883 84° East 422 486 27,000  Level Cleveland Center
22:26 42.4331 -80.6283 84° East 427 491 27,000  Level Cleveland Center
22:27 42.4456 -80.4678 84° East 427 491 27,000  Level Cleveland Center
22:28 42.4578 -80.3075 84° East 427 491 27,000  Level Cleveland Center
22:29 42.4697 -80.1469 84° East 427 491 27,000  Level Cleveland Center
22:30 42.4817 -79.9836 84° East 427 491 27,000  Level Cleveland Center
22:31 42.4953 -79.8228 83° East 427 491 27,000  Level Cleveland Center
22:32 42.5067 -79.6622 84° East 427 491 27,000  Level Cleveland Center
22:33 42.5156 -79.5017 86° East 427 491 27,000  Level Cleveland Center
22:34 42.5264 -79.3408 85° East 427 491 27,000  Level Cleveland Center
22:35 42.5350 -79.1800 86° East 427 491 27,000  Level Cleveland Center
22:36 42.5475 -79.0161 84° East 427 491 27,000  Level Cleveland Center
22:37 42.5556 -78.8553 86° East 427 491 27,000  Level Cleveland Center
22:38 42.5658 -78.6972 85° East 427 491 27,000  Level Cleveland Center
22:39 42.5756 -78.5361 85° East 427 491 27,000  Level Cleveland Center
22:40 42.5831 -78.3753 86° East 422 486 27,000  Level Cleveland Center
22:41 42.5922 -78.2197 85° East 422 486 27,000  Level Cleveland Center
22:42 42.5994 -78.0644 86° East 422 486 27,000  Level Cleveland Center
22:43 42.6083 -77.9058 86° East 422 486 27,000  Level Cleveland Center
22:44 42.6150 -77.7478 87° East 422 486 27,000  Level Cleveland Center
22:45 42.6258 -77.5919 85° East 422 486 27,000  Level Cleveland Center
22:46 42.6322 -77.4447 87° East 430 495 27,000  Level Cleveland Center
22:47 42.6383 -77.2864 87° East 430 495 27,000  Level Cleveland Center
22:48 42.6461 -77.1281 86° East 425 489 27,000  Level Cleveland Center
22:48 42.6492 -77.0394 87° East 417 480 27,000  Level Boston Center
22:49 42.6575 -76.8844 86° East 417 480 27,000  Level Boston Center
22:50 42.6633 -76.7267 87° East 417 480 27,000  Level Boston Center
22:51 42.6694 -76.5689 87° East 417 480 27,000  Level Boston Center
22:52 42.6769 -76.4114 86° East 417 480 27,000 -250 Level Boston Center
22:53 42.6825 -76.2533 87° East 417 480 26,500 -900 Descending Boston Center
22:54 42.6872 -76.1094 87° East 422 486 25,200 -1,200 Descending Boston Center
22:55 42.6911 -75.9828 88° East 422 486 24,100 -1,350 Descending Boston Center
22:56 42.6986 -75.8078 87° East 403 464 22,500 -1,500 Descending Boston Center
22:57 42.7047 -75.6642 87° East 389 448 21,100 -1,450 Descending Boston Center
22:58 42.7067 -75.5200 89° East 382 440 19,600 -1,400 Descending Boston Center
22:59 42.7125 -75.3819 87° East 377 434 18,300 -1,150 Descending Boston Center
23:00 42.7161 -75.2436 88° East 372 428 17,300 -1,200 Descending Boston Center
23:01 42.7192 -75.1081 88° East 362 417 15,900 -1,400 Descending Boston Center
23:02 42.7244 -74.9725 87° East 362 417 14,500 -1,483 Descending Boston Center
23:03 42.7261 -74.8933 88° East 356 410 13,700 -1,400 Descending Boston Center
23:03 42.7275 -74.8369 88° East 362 417 13,100 -1,187 Descending Boston Center
23:04 42.7294 -74.7325 89° East 356 410 11,900 -1,050 Descending Boston Center
23:05 42.7347 -74.5658 87° East 344 396 11,000 -750 Descending Boston Center
23:06 42.7433 -74.4475 84° East 325 374 10,400 -950 Descending Boston Center
23:07 42.7575 -74.3461 79° East 290 334 9,100 -1,650 Descending Boston Center
23:08 42.7717 -74.2503 79° East 260 299 7,100 -1,850 Descending Boston Center
23:09 42.7856 -74.1544 79° East 260 299 5,400 -1,700 Descending Boston Center
23:10 42.8014 -74.0672 76° East 254 292 3,700 -1,145 Descending Boston Center
23:11 42.8217 -73.9658 75° East 211 243 2,900 -733 Descending Boston Center
23:12 42.8392 -73.8956 71° East 182 209 2,100 -446 Descending Boston Center
23:13 42.8506 -73.8278 77° East 186 214 2,000 -344 Descending Boston Center
23:14 42.8111 -73.8128 164° South 128 147 1,400 -595 Descending Boston Center
23:15 42.7797 -73.8092 175° South 110 127 800 -600 Descending Boston Center